STARLINK-1700

Last updated on Fri Nov 06 2020 00:02:03 GMT+0000 (Coordinated Universal Time)

1 46549U 20070T 20310.83334491 -.01084184 00000-0 -20497-1 0 9999 2 46549 53.0012 293.1577 0001116 70.8062 259.9786 15.50676560 5278

Satellite not in orbit